DAL876 KATL-KJFK

Flight info

Callsign DAL876
Flight time 1h 49m
Altitude 41000
Route PHIIL3 HRTWL Q64 SAWED Q108 SIE CAMRN5
Aircraft A333/H-SDE3GHIJ2J3J5M1RVWXY/LB2D1

Departure

Time 2026-05-05 00:03
Airport Hartsfield Jackson Atlanta International Airport (KATL)

Arrival

Time 2026-05-05 01:52
Airport John F. Kennedy International Airport (KJFK)
Time Latitude Longitude Altitude Speed Heading
2026-05-04 23:45 33.63833 -84.42516 1039 ft 0 kts 269°
2026-05-04 23:50 33.63833 -84.42515 1039 ft 1 kts 270°
2026-05-04 23:50 33.63833 -84.42495 1039 ft 3 kts 270°
2026-05-04 23:51 33.63833 -84.42471 1039 ft 3 kts 270°
2026-05-04 23:51 33.63833 -84.42453 1039 ft 3 kts 266°
2026-05-04 23:51 33.63836 -84.42431 1039 ft 3 kts 229°
2026-05-04 23:51 33.63850 -84.42421 1039 ft 3 kts 182°
2026-05-04 23:52 33.63869 -84.42421 1039 ft 2 kts 179°
2026-05-04 23:52 33.63876 -84.42421 1039 ft 0 kts 180°
2026-05-04 23:57 33.63874 -84.42421 1039 ft 2 kts 180°
2026-05-04 23:57 33.63840 -84.42421 1039 ft 7 kts 180°
2026-05-04 23:58 33.63779 -84.42421 1039 ft 10 kts 180°
2026-05-04 23:58 33.63699 -84.42421 1039 ft 13 kts 179°
2026-05-04 23:58 33.63603 -84.42414 1040 ft 14 kts 165°
2026-05-04 23:58 33.63583 -84.42373 1040 ft 7 kts 93°
2026-05-04 23:59 33.63582 -84.42258 1040 ft 20 kts 90°
2026-05-04 23:59 33.63582 -84.42059 1040 ft 25 kts 90°
2026-05-04 23:59 33.63582 -84.41848 1039 ft 26 kts 90°
2026-05-04 23:59 33.63582 -84.41627 1039 ft 27 kts 90°
2026-05-05 00:00 33.63581 -84.41403 1038 ft 28 kts 90°
2026-05-05 00:00 33.63581 -84.41247 1039 ft 28 kts 88°
2026-05-05 00:00 33.63582 -84.40984 1039 ft 13 kts 90°
2026-05-05 00:00 33.63582 -84.40890 1039 ft 11 kts 90°
2026-05-05 00:01 33.63579 -84.40846 1039 ft 1 kts 116°
2026-05-05 00:01 33.63573 -84.40843 1039 ft 4 kts 144°
2026-05-05 00:01 33.63517 -84.40830 1040 ft 10 kts 177°
2026-05-05 00:01 33.63473 -84.40867 1040 ft 8 kts 255°
2026-05-05 00:02 33.63471 -84.40909 1040 ft 0 kts 271°
2026-05-05 00:02 33.63471 -84.40913 1040 ft 7 kts 271°
2026-05-05 00:02 33.63472 -84.41272 1038 ft 77 kts 270°
2026-05-05 00:03 33.63472 -84.42148 1039 ft 133 kts 270°
2026-05-05 00:03 33.63468 -84.43447 1178 ft 169 kts 269°
2026-05-05 00:03 33.63501 -84.44928 1634 ft 185 kts 268°
2026-05-05 00:03 33.63507 -84.46483 2361 ft 188 kts 262°
2026-05-05 00:04 33.63211 -84.48095 2777 ft 208 kts 249°
2026-05-05 00:04 33.62612 -84.49794 3093 ft 235 kts 241°
2026-05-05 00:04 33.61814 -84.51608 3641 ft 252 kts 240°
2026-05-05 00:04 33.60990 -84.53461 4555 ft 256 kts 240°
2026-05-05 00:05 33.60142 -84.55390 5532 ft 260 kts 239°
2026-05-05 00:05 33.59094 -84.57113 6515 ft 261 kts 223°
2026-05-05 00:05 33.57549 -84.58242 7474 ft 264 kts 198°
2026-05-05 00:05 33.55709 -84.58556 8430 ft 271 kts 183°
2026-05-05 00:06 33.53798 -84.58563 9385 ft 277 kts 181°
2026-05-05 00:06 33.51853 -84.58527 10305 ft 282 kts 181°
2026-05-05 00:06 33.49873 -84.58424 11148 ft 288 kts 174°
2026-05-05 00:06 33.47949 -84.57685 11984 ft 298 kts 152°
2026-05-05 00:07 33.46404 -84.55984 12776 ft 311 kts 126°
2026-05-05 00:07 33.45593 -84.53499 13158 ft 336 kts 99°
2026-05-05 00:07 33.45484 -84.50623 13633 ft 353 kts 90°
2026-05-05 00:07 33.45527 -84.47686 14280 ft 361 kts 89°
2026-05-05 00:08 33.45567 -84.44635 14951 ft 368 kts 90°
2026-05-05 00:08 33.45584 -84.41547 15622 ft 374 kts 90°
2026-05-05 00:08 33.45586 -84.38406 16305 ft 379 kts 91°
2026-05-05 00:08 33.45612 -84.35233 17003 ft 385 kts 88°
2026-05-05 00:09 33.46004 -84.32044 17681 ft 391 kts 77°
2026-05-05 00:09 33.46740 -84.28878 18323 ft 396 kts 73°
2026-05-05 00:09 33.47545 -84.25742 18904 ft 400 kts 72°
2026-05-05 00:09 33.48380 -84.22508 19504 ft 404 kts 72°
2026-05-05 00:10 33.49211 -84.19270 20094 ft 407 kts 72°
2026-05-05 00:10 33.50029 -84.16062 20665 ft 411 kts 72°
2026-05-05 00:10 33.50865 -84.12765 21224 ft 415 kts 72°
2026-05-05 00:10 33.51707 -84.09435 21811 ft 418 kts 72°
2026-05-05 00:11 33.52552 -84.06089 22346 ft 422 kts 72°
2026-05-05 00:11 33.53405 -84.02702 22914 ft 425 kts 72°
2026-05-05 00:11 33.54264 -83.99288 23475 ft 429 kts 72°
2026-05-05 00:11 33.55125 -83.95857 23955 ft 432 kts 72°
2026-05-05 00:12 33.55993 -83.92396 24403 ft 435 kts 72°
2026-05-05 00:12 33.56869 -83.88900 24853 ft 438 kts 72°
2026-05-05 00:12 33.57744 -83.85401 25306 ft 440 kts 72°
2026-05-05 00:12 33.58760 -83.81928 25737 ft 442 kts 66°
2026-05-05 00:13 33.59992 -83.78537 26163 ft 444 kts 64°
2026-05-05 00:13 33.61277 -83.75153 26594 ft 447 kts 64°
2026-05-05 00:13 33.62575 -83.71753 27024 ft 450 kts 64°
2026-05-05 00:13 33.63878 -83.68333 27425 ft 453 kts 64°
2026-05-05 00:14 33.65152 -83.64857 27841 ft 456 kts 68°
2026-05-05 00:14 33.66086 -83.61255 28230 ft 460 kts 75°
2026-05-05 00:14 33.66827 -83.57502 28617 ft 463 kts 76°
2026-05-05 00:14 33.67529 -83.53728 29014 ft 465 kts 77°
2026-05-05 00:15 33.68235 -83.49910 29327 ft 470 kts 76°
2026-05-05 00:15 33.68949 -83.46058 29677 ft 473 kts 76°
2026-05-05 00:15 33.69665 -83.42201 30066 ft 476 kts 76°
2026-05-05 00:15 33.70390 -83.38296 30401 ft 478 kts 76°
2026-05-05 00:16 33.71117 -83.34382 30703 ft 481 kts 76°
2026-05-05 00:16 33.71847 -83.30443 31014 ft 484 kts 76°
2026-05-05 00:16 33.72569 -83.26541 31301 ft 486 kts 76°
2026-05-05 00:16 33.73312 -83.22520 31616 ft 489 kts 76°
2026-05-05 00:17 33.74047 -83.18575 31910 ft 491 kts 75°
2026-05-05 00:17 33.75056 -83.14659 32273 ft 489 kts 66°
2026-05-05 00:17 33.76564 -83.11004 32714 ft 486 kts 58°
2026-05-05 00:17 33.78311 -83.07529 33083 ft 486 kts 56°
2026-05-05 00:18 33.80104 -83.04079 33468 ft 486 kts 56°
2026-05-05 00:18 33.81894 -83.00639 33875 ft 485 kts 56°
2026-05-05 00:18 33.83677 -82.97205 34228 ft 485 kts 56°
2026-05-05 00:18 33.85461 -82.93757 34551 ft 484 kts 56°
2026-05-05 00:19 33.87234 -82.90322 34882 ft 484 kts 56°
2026-05-05 00:19 33.89009 -82.86878 35200 ft 483 kts 55°
2026-05-05 00:19 33.90779 -82.83439 35497 ft 483 kts 55°
2026-05-05 00:19 33.92547 -82.80000 35797 ft 483 kts 55°
2026-05-05 00:20 33.94323 -82.76541 36064 ft 484 kts 55°
2026-05-05 00:20 33.96073 -82.73133 36271 ft 485 kts 55°
2026-05-05 00:20 33.97847 -82.69671 36545 ft 486 kts 54°
2026-05-05 00:20 33.99611 -82.66209 36842 ft 485 kts 54°
2026-05-05 00:21 34.01369 -82.62736 37233 ft 483 kts 54°
2026-05-05 00:21 34.03118 -82.59276 37569 ft 482 kts 54°
2026-05-05 00:21 34.04861 -82.55827 37823 ft 482 kts 54°
2026-05-05 00:21 34.06605 -82.52372 38074 ft 482 kts 54°
2026-05-05 00:22 34.08354 -82.48904 38347 ft 483 kts 54°
2026-05-05 00:22 34.10106 -82.45428 38595 ft 483 kts 54°
2026-05-05 00:22 34.11848 -82.41968 38826 ft 482 kts 54°
2026-05-05 00:22 34.13593 -82.38500 39014 ft 483 kts 54°
2026-05-05 00:23 34.15337 -82.35029 39161 ft 484 kts 54°
2026-05-05 00:23 34.17083 -82.31551 39351 ft 484 kts 54°
2026-05-05 00:23 34.18823 -82.28081 39538 ft 484 kts 54°
2026-05-05 00:23 34.20568 -82.24598 39730 ft 484 kts 54°
2026-05-05 00:24 34.22289 -82.21158 39917 ft 484 kts 54°
2026-05-05 00:24 34.24034 -82.17670 40138 ft 484 kts 54°
2026-05-05 00:24 34.25772 -82.14197 40334 ft 483 kts 54°
2026-05-05 00:24 34.27516 -82.10725 40500 ft 483 kts 54°
2026-05-05 00:25 34.29267 -82.07244 40673 ft 483 kts 54°
2026-05-05 00:25 34.31015 -82.03773 40838 ft 483 kts 54°
2026-05-05 00:25 34.32761 -82.00303 40997 ft 484 kts 54°
2026-05-05 00:26 34.36289 -81.93285 41056 ft 491 kts 54°
2026-05-05 00:26 34.39862 -81.86160 41049 ft 498 kts 54°
2026-05-05 00:27 34.43445 -81.78987 41067 ft 497 kts 54°
2026-05-05 00:27 34.47003 -81.71849 41043 ft 497 kts 54°
2026-05-05 00:28 34.50568 -81.64686 41029 ft 496 kts 54°
2026-05-05 00:28 34.54136 -81.57507 41026 ft 497 kts 54°
2026-05-05 00:29 34.57697 -81.50324 41021 ft 497 kts 54°
2026-05-05 00:29 34.61255 -81.43134 41028 ft 497 kts 54°
2026-05-05 00:30 34.64808 -81.35938 41033 ft 497 kts 54°
2026-05-05 00:30 34.68358 -81.28735 41071 ft 497 kts 55°
2026-05-05 00:31 34.71880 -81.21574 41047 ft 496 kts 55°
2026-05-05 00:31 34.75418 -81.14362 41045 ft 496 kts 55°
2026-05-05 00:32 34.78941 -81.07140 41042 ft 497 kts 58°
2026-05-05 00:32 34.81963 -80.99535 41033 ft 499 kts 62°
2026-05-05 00:33 34.84827 -80.91834 41032 ft 500 kts 63°
2026-05-05 00:33 34.87644 -80.84138 41034 ft 500 kts 63°
2026-05-05 00:34 34.90480 -80.76385 41042 ft 501 kts 63°
2026-05-05 00:34 34.93318 -80.68632 41032 ft 500 kts 63°
2026-05-05 00:35 34.96150 -80.60887 41025 ft 500 kts 63°
2026-05-05 00:35 34.98982 -80.53124 41029 ft 500 kts 63°
2026-05-05 00:36 35.01810 -80.45354 41026 ft 501 kts 63°
2026-05-05 00:36 35.04617 -80.37621 41025 ft 501 kts 63°
2026-05-05 00:37 35.07434 -80.29843 41028 ft 501 kts 63°
2026-05-05 00:37 35.10249 -80.22049 41032 ft 501 kts 63°
2026-05-05 00:38 35.13061 -80.14247 41033 ft 501 kts 63°
2026-05-05 00:38 35.15396 -80.07755 41031 ft 502 kts 63°
2026-05-05 00:39 35.18660 -79.98659 41026 ft 502 kts 63°
2026-05-05 00:39 35.21006 -79.92116 41024 ft 502 kts 63°
2026-05-05 00:40 35.23808 -79.84287 41014 ft 502 kts 64°
2026-05-05 00:40 35.26584 -79.76515 41004 ft 502 kts 64°
2026-05-05 00:41 35.29379 -79.68667 41020 ft 503 kts 64°
2026-05-05 00:41 35.32174 -79.60800 41024 ft 503 kts 64°
2026-05-05 00:42 35.34953 -79.52955 41038 ft 502 kts 64°
2026-05-05 00:42 35.37710 -79.45154 41044 ft 502 kts 64°
2026-05-05 00:43 35.40486 -79.37283 41044 ft 503 kts 64°
2026-05-05 00:43 35.43257 -79.29402 41025 ft 504 kts 64°
2026-05-05 00:44 35.46021 -79.21520 41020 ft 504 kts 64°
2026-05-05 00:44 35.48786 -79.13615 41042 ft 504 kts 64°
2026-05-05 00:45 35.51545 -79.05709 41024 ft 504 kts 64°
2026-05-05 00:45 35.54281 -78.97847 41037 ft 504 kts 64°
2026-05-05 00:46 35.57032 -78.89924 41014 ft 504 kts 64°
2026-05-05 00:46 35.59775 -78.82002 41023 ft 504 kts 64°
2026-05-05 00:47 35.62509 -78.74083 41028 ft 504 kts 64°
2026-05-05 00:47 35.65244 -78.66135 41013 ft 504 kts 64°
2026-05-05 00:48 35.67976 -78.58173 41019 ft 505 kts 64°
2026-05-05 00:48 35.70681 -78.50272 41019 ft 504 kts 65°
2026-05-05 00:49 35.73412 -78.42277 41018 ft 503 kts 65°
2026-05-05 00:49 35.76099 -78.34392 41013 ft 503 kts 65°
2026-05-05 00:50 35.78802 -78.26448 41011 ft 503 kts 65°
2026-05-05 00:50 35.81501 -78.18492 41011 ft 503 kts 65°
2026-05-05 00:51 35.84190 -78.10544 41012 ft 503 kts 65°
2026-05-05 00:51 35.86860 -78.02629 41014 ft 503 kts 65°
2026-05-05 00:52 35.89545 -77.94649 41022 ft 503 kts 65°
2026-05-05 00:52 35.92218 -77.86684 41008 ft 502 kts 65°
2026-05-05 00:53 35.94877 -77.78740 41023 ft 501 kts 65°
2026-05-05 00:53 35.97811 -77.71026 41029 ft 497 kts 54°
2026-05-05 00:54 36.02079 -77.64398 41032 ft 492 kts 45°
2026-05-05 00:54 36.06684 -77.58152 41031 ft 491 kts 43°
2026-05-05 00:55 36.11346 -77.51974 41038 ft 492 kts 43°
2026-05-05 00:55 36.15996 -77.45770 41007 ft 491 kts 43°
2026-05-05 00:56 36.20632 -77.39534 41018 ft 491 kts 44°
2026-05-05 00:56 36.25249 -77.33297 41023 ft 491 kts 44°
2026-05-05 00:57 36.29833 -77.27091 41025 ft 491 kts 44°
2026-05-05 00:57 36.34736 -77.21249 41026 ft 487 kts 38°
2026-05-05 00:58 36.39764 -77.15583 41026 ft 488 kts 38°
2026-05-05 00:58 36.44808 -77.09956 41018 ft 488 kts 38°
2026-05-05 00:59 36.49864 -77.04301 41014 ft 488 kts 38°
2026-05-05 00:59 36.54904 -76.98642 41006 ft 488 kts 38°
2026-05-05 01:00 36.59916 -76.92997 41006 ft 489 kts 38°
2026-05-05 01:00 36.64964 -76.87300 41012 ft 489 kts 38°
2026-05-05 01:01 36.70006 -76.81601 41017 ft 490 kts 38°
2026-05-05 01:01 36.75065 -76.75873 41034 ft 491 kts 38°
2026-05-05 01:02 36.80111 -76.70148 41026 ft 491 kts 38°
2026-05-05 01:02 36.85160 -76.64409 41019 ft 491 kts 38°
2026-05-05 01:03 36.90176 -76.58696 41017 ft 491 kts 38°
2026-05-05 01:03 36.95222 -76.52939 41038 ft 491 kts 38°
2026-05-05 01:04 37.00255 -76.47184 40995 ft 490 kts 38°
2026-05-05 01:04 37.07819 -76.38519 40999 ft 492 kts 38°
2026-05-05 01:05 37.12869 -76.32718 40999 ft 492 kts 38°
2026-05-05 01:05 37.17911 -76.26916 40999 ft 491 kts 38°
2026-05-05 01:06 37.22913 -76.21148 41000 ft 490 kts 38°
2026-05-05 01:06 37.27925 -76.15358 40979 ft 490 kts 38°
2026-05-05 01:07 37.32941 -76.09552 40990 ft 490 kts 38°
2026-05-05 01:07 37.37962 -76.03732 40997 ft 490 kts 39°
2026-05-05 01:08 37.42963 -75.97922 40997 ft 488 kts 39°
2026-05-05 01:08 37.47939 -75.92129 40991 ft 487 kts 39°
2026-05-05 01:09 37.52955 -75.86494 40988 ft 483 kts 32°
2026-05-05 01:09 37.58552 -75.81894 40988 ft 480 kts 27°
2026-05-05 01:10 37.64284 -75.77561 40997 ft 479 kts 25°
2026-05-05 01:10 37.70051 -75.73271 40991 ft 480 kts 25°
2026-05-05 01:11 37.75811 -75.68967 40991 ft 481 kts 26°
2026-05-05 01:11 37.81523 -75.64672 40990 ft 480 kts 26°
2026-05-05 01:12 37.87202 -75.60186 40997 ft 482 kts 29°
2026-05-05 01:12 37.92726 -75.55367 40998 ft 483 kts 31°
2026-05-05 01:13 37.98218 -75.50495 40985 ft 482 kts 30°
2026-05-05 01:13 38.03734 -75.45640 40985 ft 481 kts 31°
2026-05-05 01:14 38.09293 -75.40934 40989 ft 479 kts 28°
2026-05-05 01:14 38.14925 -75.36372 40987 ft 480 kts 28°
2026-05-05 01:15 38.20560 -75.31818 41012 ft 480 kts 28°
2026-05-05 01:15 38.26500 -75.28204 41006 ft 468 kts 12°
2026-05-05 01:16 38.32815 -75.26436 41003 ft 463 kts
2026-05-05 01:16 38.39124 -75.25092 40512 ft 460 kts
2026-05-05 01:17 38.42269 -75.24457 40333 ft 453 kts
2026-05-05 01:17 38.45364 -75.23829 40050 ft 447 kts
2026-05-05 01:17 38.48421 -75.23204 39692 ft 444 kts
2026-05-05 01:17 38.51468 -75.22577 39291 ft 442 kts
2026-05-05 01:18 38.54490 -75.21950 38865 ft 440 kts
2026-05-05 01:18 38.57514 -75.21318 38372 ft 439 kts
2026-05-05 01:18 38.60533 -75.20685 37816 ft 439 kts
2026-05-05 01:18 38.63543 -75.20053 37247 ft 439 kts
2026-05-05 01:19 38.66558 -75.19370 36664 ft 440 kts
2026-05-05 01:19 38.69504 -75.18226 36070 ft 444 kts 18°
2026-05-05 01:19 38.72283 -75.16462 35492 ft 449 kts 29°
2026-05-05 01:19 38.74860 -75.14184 34917 ft 450 kts 33°
2026-05-05 01:20 38.77333 -75.11801 34379 ft 451 kts 34°
2026-05-05 01:20 38.79830 -75.09353 34058 ft 453 kts 34°
2026-05-05 01:20 38.84867 -75.04403 33983 ft 457 kts 34°
2026-05-05 01:21 38.89920 -74.99431 33979 ft 456 kts 35°
2026-05-05 01:21 38.94916 -74.94510 33981 ft 455 kts 35°
2026-05-05 01:22 38.99953 -74.89542 33668 ft 460 kts 35°
2026-05-05 01:22 39.02483 -74.87042 32596 ft 456 kts 35°
2026-05-05 01:22 39.05003 -74.84549 31062 ft 457 kts 35°
2026-05-05 01:23 39.07535 -74.82044 30107 ft 460 kts 36°
2026-05-05 01:23 39.10035 -74.79525 29627 ft 453 kts 37°
2026-05-05 01:23 39.12453 -74.76946 29110 ft 446 kts 37°
2026-05-05 01:23 39.14807 -74.74399 28613 ft 440 kts 37°
2026-05-05 01:24 39.17135 -74.71875 28100 ft 434 kts 37°
2026-05-05 01:24 39.19435 -74.69382 27599 ft 429 kts 37°
2026-05-05 01:24 39.21702 -74.66928 27121 ft 423 kts 37°
2026-05-05 01:24 39.23947 -74.64497 26640 ft 419 kts 37°
2026-05-05 01:25 39.26175 -74.62083 26140 ft 415 kts 37°
2026-05-05 01:25 39.28370 -74.59702 25644 ft 411 kts 37°
2026-05-05 01:25 39.30523 -74.57365 25353 ft 408 kts 37°
2026-05-05 01:25 39.32679 -74.55024 24985 ft 402 kts 37°
2026-05-05 01:26 39.34814 -74.52702 24495 ft 400 kts 37°
2026-05-05 01:26 39.36935 -74.50396 23995 ft 398 kts 37°
2026-05-05 01:26 39.39050 -74.48093 23505 ft 396 kts 37°
2026-05-05 01:26 39.41144 -74.45813 22966 ft 393 kts 37°
2026-05-05 01:27 39.42529 -74.44302 22647 ft 390 kts 37°
2026-05-05 01:27 39.44591 -74.42051 22155 ft 387 kts 37°
2026-05-05 01:27 39.46642 -74.39812 21686 ft 384 kts 37°
2026-05-05 01:27 39.48676 -74.37589 21204 ft 381 kts 37°
2026-05-05 01:28 39.50691 -74.35385 20737 ft 378 kts 37°
2026-05-05 01:28 39.52698 -74.33189 20271 ft 376 kts 37°
2026-05-05 01:28 39.54691 -74.31006 19806 ft 374 kts 37°
2026-05-05 01:28 39.56647 -74.28861 19335 ft 372 kts 36°
2026-05-05 01:29 39.58636 -74.26682 19024 ft 379 kts 37°
2026-05-05 01:29 39.60675 -74.24447 18540 ft 385 kts 37°
2026-05-05 01:29 39.62718 -74.22202 18060 ft 383 kts 37°
2026-05-05 01:29 39.64745 -74.19971 17688 ft 381 kts 37°
2026-05-05 01:30 39.66768 -74.17743 17301 ft 379 kts 37°
2026-05-05 01:30 39.68771 -74.15537 16915 ft 377 kts 37°
2026-05-05 01:30 39.70766 -74.13337 16522 ft 375 kts 37°
2026-05-05 01:30 39.72750 -74.11148 16132 ft 373 kts 37°
2026-05-05 01:31 39.74726 -74.08966 15746 ft 371 kts 37°
2026-05-05 01:31 39.76686 -74.06800 15370 ft 369 kts 37°
2026-05-05 01:31 39.78632 -74.04648 14996 ft 367 kts 37°
2026-05-05 01:31 39.80584 -74.02488 14628 ft 366 kts 37°
2026-05-05 01:32 39.82491 -74.00376 14235 ft 364 kts 37°
2026-05-05 01:32 39.84489 -73.98393 13849 ft 359 kts 28°
2026-05-05 01:32 39.86639 -73.96762 13453 ft 356 kts 25°
2026-05-05 01:32 39.88811 -73.95227 13067 ft 353 kts 24°
2026-05-05 01:33 39.90965 -73.93717 12710 ft 351 kts 24°
2026-05-05 01:33 39.93109 -73.92210 12353 ft 349 kts 25°
2026-05-05 01:33 39.95236 -73.90709 11988 ft 346 kts 25°
2026-05-05 01:33 39.97346 -73.89217 11623 ft 344 kts 25°
2026-05-05 01:34 39.99449 -73.87727 11270 ft 342 kts 25°
2026-05-05 01:34 40.01566 -73.86351 11061 ft 336 kts 17°
2026-05-05 01:34 40.03767 -73.85509 11022 ft 332 kts
2026-05-05 01:34 40.05990 -73.84851 11020 ft 318 kts
2026-05-05 01:35 40.08089 -73.84255 11019 ft 300 kts
2026-05-05 01:35 40.10101 -73.83688 11022 ft 294 kts
2026-05-05 01:35 40.12077 -73.82958 10926 ft 298 kts 18°
2026-05-05 01:35 40.13930 -73.81700 10507 ft 301 kts 26°
2026-05-05 01:36 40.15717 -73.80288 10161 ft 298 kts 27°
2026-05-05 01:36 40.17472 -73.78879 9811 ft 295 kts 28°
2026-05-05 01:36 40.19217 -73.77481 9378 ft 294 kts 28°
2026-05-05 01:36 40.20962 -73.76083 8933 ft 293 kts 27°
2026-05-05 01:37 40.22699 -73.74698 8489 ft 292 kts 28°
2026-05-05 01:37 40.24431 -73.73318 8062 ft 291 kts 27°
2026-05-05 01:37 40.26162 -73.71942 7624 ft 290 kts 27°
2026-05-05 01:37 40.27894 -73.70568 7190 ft 290 kts 27°
2026-05-05 01:38 40.29613 -73.69208 6762 ft 289 kts 27°
2026-05-05 01:38 40.31316 -73.67868 6360 ft 288 kts 27°
2026-05-05 01:38 40.33035 -73.66517 5923 ft 288 kts 27°
2026-05-05 01:38 40.34755 -73.65173 5504 ft 288 kts 27°
2026-05-05 01:39 40.36479 -73.63832 5041 ft 288 kts 27°
2026-05-05 01:39 40.38210 -73.62497 4618 ft 288 kts 27°
2026-05-05 01:39 40.39940 -73.61173 4219 ft 288 kts 27°
2026-05-05 01:39 40.41668 -73.59860 4017 ft 287 kts 27°
2026-05-05 01:40 40.43399 -73.58546 3985 ft 288 kts 27°
2026-05-05 01:40 40.45133 -73.57230 3984 ft 287 kts 27°
2026-05-05 01:40 40.46864 -73.55916 4001 ft 287 kts 27°
2026-05-05 01:40 40.48593 -73.54606 3981 ft 287 kts 27°
2026-05-05 01:41 40.50327 -73.53293 3995 ft 287 kts 27°
2026-05-05 01:41 40.52036 -73.52003 3978 ft 284 kts 27°
2026-05-05 01:41 40.53724 -73.50754 3974 ft 266 kts 22°
2026-05-05 01:41 40.55445 -73.50212 3869 ft 248 kts 355°
2026-05-05 01:42 40.57119 -73.50370 3714 ft 237 kts 347°
2026-05-05 01:42 40.58716 -73.50640 3512 ft 232 kts 347°
2026-05-05 01:42 40.60311 -73.50900 3171 ft 231 kts 347°
2026-05-05 01:42 40.61889 -73.51157 2993 ft 222 kts 347°
2026-05-05 01:43 40.63359 -73.51386 2987 ft 206 kts 347°
2026-05-05 01:43 40.64767 -73.51595 2991 ft 203 kts 347°
2026-05-05 01:43 40.66166 -73.51800 2993 ft 201 kts 347°
2026-05-05 01:43 40.67558 -73.52008 2989 ft 201 kts 347°
2026-05-05 01:44 40.68955 -73.52212 2989 ft 202 kts 347°
2026-05-05 01:44 40.70355 -73.52408 2994 ft 201 kts 347°
2026-05-05 01:44 40.71743 -73.52609 2990 ft 201 kts 347°
2026-05-05 01:44 40.73130 -73.52816 2995 ft 201 kts 347°
2026-05-05 01:45 40.74514 -73.53011 2996 ft 200 kts 347°
2026-05-05 01:45 40.75880 -73.53210 2992 ft 200 kts 347°
2026-05-05 01:45 40.77268 -73.53416 2993 ft 201 kts 347°
2026-05-05 01:45 40.78658 -73.53608 2966 ft 200 kts 347°
2026-05-05 01:46 40.79988 -73.54015 2972 ft 192 kts 323°
2026-05-05 01:46 40.80865 -73.55205 2968 ft 174 kts 293°
2026-05-05 01:46 40.81383 -73.56605 2964 ft 167 kts 286°
2026-05-05 01:46 40.81836 -73.58011 2969 ft 169 kts 285°
2026-05-05 01:47 40.82137 -73.59514 2797 ft 171 kts 270°
2026-05-05 01:47 40.82041 -73.61077 2411 ft 168 kts 248°
2026-05-05 01:47 40.81321 -73.62215 2146 ft 162 kts 220°
2026-05-05 01:47 40.80383 -73.63031 1968 ft 160 kts 213°
2026-05-05 01:48 40.79432 -73.63778 1966 ft 161 kts 213°
2026-05-05 01:48 40.78465 -73.64535 1965 ft 161 kts 213°
2026-05-05 01:48 40.77491 -73.65302 1993 ft 161 kts 212°
2026-05-05 01:48 40.76541 -73.66052 1986 ft 161 kts 212°
2026-05-05 01:49 40.75572 -73.66814 1987 ft 161 kts 213°
2026-05-05 01:49 40.74609 -73.67572 1984 ft 160 kts 212°
2026-05-05 01:49 40.73655 -73.68323 1988 ft 159 kts 211°
2026-05-05 01:49 40.72702 -73.69071 1901 ft 160 kts 212°
2026-05-05 01:50 40.71739 -73.69827 1691 ft 161 kts 212°
2026-05-05 01:50 40.70782 -73.70579 1451 ft 159 kts 211°
2026-05-05 01:50 40.69838 -73.71320 1258 ft 158 kts 210°
2026-05-05 01:50 40.68950 -73.72016 1029 ft 139 kts 209°
2026-05-05 01:51 40.68167 -73.72631 845 ft 124 kts 211°
2026-05-05 01:51 40.67465 -73.73181 700 ft 113 kts 210°
2026-05-05 01:51 40.66795 -73.73707 574 ft 112 kts 208°
2026-05-05 01:51 40.66125 -73.74226 443 ft 109 kts 203°
2026-05-05 01:52 40.65462 -73.74786 336 ft 117 kts 211°
2026-05-05 01:52 40.64759 -73.75311 151 ft 114 kts 207°
2026-05-05 01:52 40.64097 -73.75821 29 ft 104 kts 210°
2026-05-05 01:52 40.63633 -73.76184 31 ft 49 kts 210°
2026-05-05 01:53 40.63387 -73.76376 27 ft 41 kts 211°
2026-05-05 01:53 40.63141 -73.76575 25 ft 41 kts 213°
2026-05-05 01:53 40.62952 -73.76837 29 ft 38 kts 239°
2026-05-05 01:53 40.63003 -73.77125 28 ft 34 kts 299°
2026-05-05 01:54 40.63121 -73.77392 32 ft 35 kts 300°
2026-05-05 01:54 40.63247 -73.77671 31 ft 37 kts 301°
2026-05-05 01:54 40.63382 -73.77975 27 ft 40 kts 298°
2026-05-05 01:54 40.63503 -73.78242 29 ft 15 kts 304°
2026-05-05 01:55 40.63550 -73.78276 28 ft 8 kts 20°
2026-05-05 01:55 40.63627 -73.78257 27 ft 14 kts
2026-05-05 01:55 40.63734 -73.78271 27 ft 18 kts 350°
2026-05-05 01:55 40.63834 -73.78291 27 ft 9 kts 352°
2026-05-05 01:56 40.63886 -73.78296 27 ft 2 kts 15°
2026-05-05 01:56 40.63903 -73.78273 27 ft 6 kts 48°
2026-05-05 01:56 40.63919 -73.78217 27 ft 4 kts 74°
2026-05-05 01:56 40.63921 -73.78210 27 ft 0 kts 73°
2026-05-05 01:57 40.63922 -73.78206 27 ft 0 kts 72°